Matala Airport

Jump to: basic info | weather | runways | comments

Related pages: nearby airports | nearby navaids | notams | map

Basic information (top)

Codes: FN18
Location: lon -14.727500, lat 15.014000, elev 4,120 ft / 1,256 m msl
Status: small_airport

Weather (top)

Current conditions for Lubango Airport 84nm (156km) W (rec'd 2014/04/25 08:00Z):

FNUB 250800Z 11004KT 9999 FEW025 23/// Q1024

Airport forecast for Lubango Airport 84nm (156km) W (rec'd 2014/04/24 12:00Z):

TAF FNUB 241100Z 2412/2424 30008KT 9999 FEW020 SCT040 PROB30 
      TEMPO 2412/2420 8000 -TSRA SCT015 FEW020CB BKN050 
      BECMG 2419/2421 VRB03KT

Runways (top)

10/28: 8,015 x 98 ft (2,443 x 30 m) — paved — not lighted

Latest comments (top)

No comments yet for Matala Airport

More... (top)

See also NOTAMs and nearby airports and navaids, or visit the Matala Airport page at the main OurAirports website..